Regional Weather Roundup
Issued by NWS Jackson, KY

Home | Current Version | Previous Version | Graphics & Text | Print | Product List | Glossary On
Versions: 1 2 3 4 5 6 7 8 9 10 11 12 13 14 15 16 17 18 19 20 21 22 23 24 25 26 27 28 29 30 31 32 33 34 35 36 37 38 39 40 41 42 43 44 45 46 47 48 49 50
000
ASUS43 KJKL 010810
RWRJKL

EAST KENTUCKY HOURLY WEATHER ROUNDUP
NATIONAL WEATHER SERVICE JACKSON KY
300 AM EST SUN FEB 01 2015

NOTE: "FAIR" INDICATES FEW OR NO CLOUDS BELOW 12,000 FEET WITH
NO SIGNIFICANT WEATHER AND/OR OBSTRUCTIONS TO VISIBILITY.

* THESE REPORTS ARE NOT UNDER NWS QUALITY CONTROL AND MAY NOT
  REPORT WEATHER SUCH AS PRECIPITATION AND FOG.

KYZ079-080-083-085-087-088-110-112-115-119-120-010900
...EASTERN KENTUCKY...

CITY           SKY/WX    TMP DP  RH WIND       PRES   REMARKS
JACKSON        CLOUDY    36  12  37 E3        30.18F
LONDON         CLOUDY    36  18  48 CALM      30.17F
SOMERSET*      MOCLDY    34  19  55 CALM      30.18F
MONTICELLO*    CLOUDY    42   8  24 CALM      30.18F
MIDDLESBORO*   CLOUDY    36  25  66 CALM      30.20F
HARLAN APT*    CLOUDY    34  25  69 E10       30.18F WCI  26
BLACK MTN*       N/A     34   9  35 S7          N/A  WCI  28
PIKEVILLE APT* CLOUDY    34  16  47 CALM      30.19F
BIG SANDY*     CLOUDY    34  19  53 SE3       30.20S
MOREHEAD APT*  CLOUDY    34  21  60 S6        30.20S WCI  29
$$

KYZ035-036-041-042-044-050-067-078-099-010900
...CENTRAL KENTUCKY...

CITY           SKY/WX    TMP DP  RH WIND       PRES   REMARKS
MT STERLING*   MOCLDY    34  21  60 E3        30.20R
FLEMING/MASON* CLOUDY    32  25  74 W7        30.21R WCI  26
DANVILLE*      CLOUDY    32  27  80 NE5       30.17F WCI  27
RICHMOND*      CLOUDY    34  19  55 CALM      30.17R
LEXINGTON      CLOUDY    35  19  52 E6        30.18F WCI  30
FRANKFORT      CLOUDY    33  22  63 SE5       30.16F WCI  29
$$

KYZ091>093-OHZ055-061-077-WVZ005-015-034-035-042-010900
...SOUTHERN OHIO/WEST VIRGINIA...

CITY           SKY/WX    TMP DP  RH WIND       PRES   REMARKS
COVINGTON      CLOUDY    34  29  82 E5        30.15F WCI  30
COLUMBUS       LGT SNOW  31  29  92 CALM      30.19S FOG
DAYTON         LGT RAIN  33  31  92 S5        30.17S FOG     WCI  29
WILMINGTON     CLOUDY    31  28  89 SW9       30.18R WCI  23
HUNTINGTON     CLOUDY    30  23  75 E6        30.20F WCI  24
CHARLESTON     CLOUDY    31  22  69 CALM      30.22S
PINEVILLE*     CLOUDY    30  26  84 MISG      30.25F
BECKLEY        CLOUDY    31  15  52 SW5       30.18F WCI  26
BLUEFIELD      CLOUDY    35   9  33 W6        30.17F WCI  30
$$

VAZ002-007-008-TNZ017-027-036-066-071-010900
...SOUTHWEST VIRGINIA/EAST TENNESSEE...

CITY           SKY/WX    TMP DP  RH WIND       PRES   REMARKS
WISE*          CLOUDY    34  14  44 NW3       30.18R
JONESVILLE*    CLOUDY    34  19  55 CALM      30.23F
ABINGDON*      CLOUDY    37  13  37 CALM      30.19S
BRISTOL        CLOUDY    34  18  52 SW3       30.21S
KNOXVILLE      CLOUDY    37  23  56 CALM      30.19F
OAK RIDGE      CLOUDY    38  25  59 CALM      30.21F
CROSSVILLE     CLOUDY    43  11  27 S7G17     30.16R
NASHVILLE      CLOUDY    46  18  32 S3        30.11F
$$

...KEY TO REMARKS...
VSB - VISIBILITY IN MILES
WCI - WIND CHILL INDEX
HX  - HEAT INDEX

$$


USA.gov is the U.S. government's official web portal to all federal, state and local government web resources and services.